This is the latest recevied weather packets stored in our database for station/object IZ1HKE-13. If no packets are shown the sender has not sent any weather packets the latest 1 day(s).
| Time | Temp. | Humidity | Pressure | Rain* | Wind** | Luminosity | Snow |
|---|---|---|---|---|---|---|---|
| 1778051454 | 12.78° C | 99% | 1014.2 hPa | 1.52 mm | - | 84 W/m² | - |
| 1778050079 | 12.78° C | 99% | 1013.9 hPa | 2.54 mm | - | 42 W/m² | - |
| 1778045254 | 12.22° C | 99% | 1014.8 hPa | 0 mm | - | 68 W/m² | - |
| 1778044567 | 12.22° C | 99% | 1014.5 hPa | 0 mm | - | 45 W/m² | - |
| 1778043879 | 12.22° C | 99% | 1014.6 hPa | 0 mm | - | 42 W/m² | - |
| 1778043192 | 11.67° C | 99% | 1014.8 hPa | 0 mm | - | 30 W/m² | - |
| 1778042504 | 11.67° C | 99% | 1014.8 hPa | 0 mm | - | 28 W/m² | - |
| 1778041817 | 11.67° C | 99% | 1015.1 hPa | 0 mm | - | 8 W/m² | - |
| 1778040442 | 11.67° C | 99% | 1015.6 hPa | 0 mm | - | 1 W/m² | - |
| 1778039754 | 11.67° C | 99% | 1015.5 hPa | 0 mm | - | 0 W/m² | - |
| 1778039067 | 11.67° C | 99% | 1015.5 hPa | 0 mm | - | 0 W/m² | - |
| 1778037692 | 11.67° C | 99% | 1015.5 hPa | 0.25 mm | - | 0 W/m² | - |
| 1778036317 | 11.67° C | 99% | 1015.7 hPa | 2.29 mm | - | 0 W/m² | - |
| 1778034942 | 11.67° C | 99% | 1016.1 hPa | 4.32 mm | - | 0 W/m² | - |
| 1778034254 | 11.67° C | 99% | 1016.4 hPa | 4.32 mm | - | 0 W/m² | - |
| 1778033567 | 11.11° C | 99% | 1016.7 hPa | 3.3 mm | - | 0 W/m² | - |
| 1778031492 | 11.11° C | 99% | 1017.4 hPa | 0.25 mm | - | 0 W/m² | - |
| 1778030117 | 11.11° C | 99% | 1017.3 hPa | 0.25 mm | - | 0 W/m² | - |
| 1778028742 | 11.11° C | 99% | 1017.8 hPa | 0.25 mm | - | 0 W/m² | - |
| 1778027367 | 10.56° C | 99% | 1017.5 hPa | 0 mm | - | 0 W/m² | - |
| 1778025992 | 10.56° C | 99% | 1018 hPa | 0 mm | - | 0 W/m² | - |
| 1778021855 | 10.56° C | 99% | 1018.4 hPa | 0 mm | - | 0 W/m² | - |
| 1778020480 | 11.11° C | 99% | 1018.7 hPa | 0 mm | - | 0 W/m² | - |
| 1778019105 | 11.11° C | 99% | 1018.7 hPa | 0 mm | - | 0 W/m² | - |
| 1778017730 | 11.67° C | 99% | 1019.1 hPa | 0 mm | - | 0 W/m² | - |
* Rain latest hour (hover to see other rain measurements)
** Current wind speed in m/s (hover to see current wind gust speed)